Regional Weather Roundup
Issued by NWS

Home | Current Version | Previous Version | Graphics & Text | Print | Product List | Glossary On
Versions: 1 2 3 4 5 6 7 8 9 10 11 12 13 14 15 16 17 18 19 20 21 22 23 24 25 26 27 28 29 30 31 32 33 34 35 36 37 38 39 40 41 42 43 44 45 46 47 48 49 50
000
ASUS43 KFSD 182102
RWRSD

WEATHER ROUNDUP FOR SOUTH DAKOTA
NATIONAL WEATHER SERVICE SIOUX FALLS SD
300 PM CST THU DEC 18 2014

NOTE: "FAIR" INDICATES FEW OR NO CLOUDS BELOW 12,000 FEET WITH NO
SIGNIFICANT WEATHER AND/OR OBSTRUCTIONS TO VISIBILITY.


SDZ001>005-009-010-012>017-182200-
NORTHWEST AND NORTH CENTRAL SOUTH DAKOTA

CITY           SKY/WX    TMP DP  RH WIND       PRES   REMARKS
BUFFALO          N/A     41  29  62 W12       29.87S
FAITH            N/A     30  25  81 SW12      29.98F WCI  20
MOBRIDGE       CLOUDY    28  25  88 S9        30.01F WCI  19
$$

SDZ012>016-024>037-041>051-057-063-072>074-182200-
SOUTHWEST AND SOUTH CENTRAL SOUTH DAKOTA

CITY           SKY/WX    TMP DP  RH WIND       PRES   REMARKS
RAPID CTY ARPT MOSUNNY   40  29  64 SE7       29.96S
PIERRE         CLOUDY    29  24  82 S8        30.05F WCI  21
CUSTER         SUNNY     37  17  44 VRB6      29.94S
ELLSWORTH AFB  SUNNY     44  27  51 S3        29.96S
PHILIP         SUNNY     30  22  72 S7        30.03F WCI  23
PINE RIDGE     SUNNY     37  23  56 W10       30.01S
WINNER         CLOUDY    30  24  78 SW5       30.07S WCI  25
$$

SDZ004>011-016>023-039-040-182200-
NORTHEAST SOUTH DAKOTA

CITY           SKY/WX    TMP DP  RH WIND       PRES   REMARKS
ABERDEEN       CLOUDY    24  22  91 S9        30.13F FOG     WCI  14
WATERTOWN      CLOUDY    24  20  84 S8        30.12S WCI  15
SISSETON         N/A     20  16  84 S10       30.17  WCI   9
$$

SDZ017-020-022-023-036>040-048>070-182200-
SOUTHEAST SOUTH DAKOTA

CITY           SKY/WX    TMP DP  RH WIND       PRES   REMARKS
SIOUX FALLS    LGT SNOW  26  22  84 S7        30.17R FOG     WCI  18
HURON          CLOUDY    25  21  85 S8        30.14S WCI  16
MITCHELL         N/A     27  23  85 S9        30.16S WCI  18
YANKTON        PTSUNNY   28  21  74 S5        30.18S WCI  23
$$

ABBREVIATIONS USED IN REMARKS
   TC - TEMPERATURE IN CELSIUS
  WCI - WIND CHILL INDEX
   HX - HEAT INDEX
  VSB - VISIBILITY



USA.gov is the U.S. government's official web portal to all federal, state and local government web resources and services.